Weather History for KACP - November, 2012

Change the Weather History Date:

Wednesday, November 21, 2012

  Actual Average (KPOE) Record (KPOE)
Temperature  
Mean Temperature 66 °F -  
Max Temperature 77 °F 64 °F 81 °F (2007)
Min Temperature 53 °F 46 °F 30 °F (2006)
Cooling Degree Days 1    
Growing Degree Days 16 (Base 50)    
Moisture  
Dew Point 49 °F    
Average Humidity 52    
Maximum Humidity 100    
Minimum Humidity 24    
Precipitation  
Precipitation 0.00 in - - ()
Sea Level Pressure  
Sea Level Pressure 30.20 in    
Wind  
Wind Speed 1 mph (NNW)    
Max Wind Speed 10 mph    
Max Gust Speed 16 mph    
Visibility 8 miles    
Events      
Averages and records for this station are not official NWS values.
T = Trace of Precipitation, MM = Missing Value Source: NWS Daily Summary

Daily Weather History Graph

Daily Weather History Graph

Search for Another Location

Airport or City:

Trip Planner

Search our weather history database for the weather conditions in past years. The results will help you decide how hot, cold, wet, or windy it might be!

Date:

Astronomy

Nov. 21, 2012 Rise Set
Actual Time 6:42 AM CST 5:10 PM CST
Civil Twilight 6:16 AM CST 5:36 PM CST
Nautical Twilight 5:47 AM CST 6:05 PM CST
Astronomical Twilight 5:18 AM CST 6:34 PM CST
Moon 1:04 PM CST (11/21) 12:27 AM CST (11/21)
Length of Visible Light 11h 19m
Length of Day
10h 27m
First Quarter, 62% of the Moon is Illuminated
Nov 21
First Quarter
Nov 28
Full
Dec 6
Last Quarter
Dec 13
New
Dec 19
First Quarter

Hourly Weather History & Observations

Time (CST) Temp. Dew Point Humidity Pressure Visibility Wind Dir Wind Speed Gust Speed Precip Events Conditions
12:15 AM - - N/A% 30.19 in 7.0 mi Calm Calm - N/A   Clear
12:35 AM - - N/A% 30.19 in 7.0 mi Calm Calm - N/A   Clear
12:55 AM - - N/A% 30.19 in 7.0 mi Calm Calm - N/A   Clear
1:15 AM - - N/A% 30.19 in 7.0 mi Calm Calm - N/A   Clear
1:35 AM - - N/A% 30.19 in 7.0 mi Calm Calm - N/A   Clear
1:55 AM - - N/A% 30.19 in 7.0 mi Calm Calm - N/A   Clear
2:15 AM - - N/A% 30.18 in 7.0 mi Calm Calm - N/A   Clear
2:35 AM - - N/A% 30.19 in 7.0 mi Calm Calm - N/A   Clear
2:55 AM - - N/A% 30.19 in 7.0 mi Calm Calm - N/A   Clear
3:15 AM - - N/A% 30.19 in 7.0 mi Calm Calm - N/A   Clear
3:35 AM - - N/A% 30.19 in 7.0 mi Calm Calm - N/A   Clear
3:55 AM - - N/A% 30.19 in 7.0 mi Calm Calm - N/A   Clear
4:15 AM - - N/A% 30.19 in 7.0 mi Calm Calm - N/A   Clear
4:35 AM - - N/A% 30.19 in 7.0 mi Calm Calm - N/A   Clear
4:55 AM - - N/A% 30.19 in 7.0 mi Calm Calm - N/A   Clear
5:15 AM - - N/A% 30.19 in 5.0 mi Calm Calm - N/A   Haze
5:35 AM - - N/A% 30.20 in 5.0 mi Calm Calm - N/A   Haze
5:55 AM - - N/A% 30.20 in 7.0 mi Calm Calm - N/A   Clear
6:15 AM - - N/A% 30.21 in 7.0 mi Calm Calm - N/A   Clear
6:35 AM - - N/A% 30.21 in 4.0 mi Calm Calm - N/A   Haze
6:55 AM - - N/A% 30.22 in 4.0 mi Calm Calm - N/A   Haze
7:15 AM - - N/A% 30.23 in 5.0 mi Calm Calm - N/A   Haze
7:35 AM - - N/A% 30.23 in 5.0 mi Calm Calm - N/A   Haze
7:55 AM - - N/A% 30.24 in 5.0 mi Calm Calm - N/A   Haze
8:15 AM - - N/A% 30.25 in 10.0 mi Calm Calm - N/A   Clear
8:35 AM 57.2 °F 57.2 °F 100% 30.25 in 10.0 mi Calm Calm - N/A   Clear
8:55 AM 60.8 °F 59.0 °F 94% 30.26 in 10.0 mi NNW 3.5 mph - N/A   Clear
9:15 AM 62.6 °F 55.4 °F 77% 30.26 in 10.0 mi Calm Calm - N/A   Clear
9:35 AM 66.2 °F 53.6 °F 64% 30.26 in 10.0 mi NW 6.9 mph - N/A   Clear
9:55 AM 68.0 °F 55.4 °F 64% 30.26 in 10.0 mi NNW 5.8 mph - N/A   Clear
10:15 AM 69.8 °F 55.4 °F 60% 30.26 in 10.0 mi NNW 5.8 mph - N/A   Clear
10:35 AM 71.6 °F 55.4 °F 57% 30.25 in 10.0 mi North 5.8 mph - N/A   Clear
10:55 AM 73.4 °F 53.6 °F 50% 30.25 in 10.0 mi NNW 8.1 mph - N/A   Clear
11:15 AM 75.2 °F 53.6 °F 47% 30.24 in 10.0 mi North 5.8 mph - N/A   Clear
11:35 AM 75.2 °F 51.8 °F 44% 30.23 in 10.0 mi NNW 6.9 mph - N/A   Clear
11:55 AM 75.2 °F 48.2 °F 38% 30.22 in 10.0 mi North 8.1 mph - N/A   Clear
12:15 PM 75.2 °F 46.4 °F 36% 30.21 in 10.0 mi NNW 10.4 mph 16.1 mph N/A   Clear
12:35 PM 77.0 °F 46.4 °F 34% 30.21 in 10.0 mi NNW 9.2 mph - N/A   Clear
12:55 PM 77.0 °F 46.4 °F 34% 30.20 in 10.0 mi NNW 4.6 mph - N/A   Clear
1:15 PM 77.0 °F 44.6 °F 32% 30.19 in 10.0 mi North 6.9 mph - N/A   Clear
2:15 PM 77.0 °F 39.2 °F 26% 30.17 in 10.0 mi North 10.4 mph - N/A   Clear
2:35 PM 75.2 °F 37.4 °F 25% 30.16 in 10.0 mi NNE 5.8 mph - N/A   Clear
2:55 PM 77.0 °F 37.4 °F 24% 30.16 in 10.0 mi NNW 6.9 mph - N/A   Clear
3:15 PM 77.0 °F 37.4 °F 24% 30.16 in 10.0 mi North 6.9 mph - N/A   Clear
3:35 PM 75.2 °F 37.4 °F 25% 30.17 in 10.0 mi North 6.9 mph - N/A   Clear
3:55 PM 73.4 °F 41.0 °F 31% 30.17 in 10.0 mi NNW 4.6 mph - N/A   Clear
4:15 PM 75.2 °F 41.0 °F 29% 30.17 in 10.0 mi North 4.6 mph - N/A   Clear
4:35 PM 71.6 °F 44.6 °F 38% 30.17 in 10.0 mi Calm Calm - N/A   Clear
4:55 PM 64.4 °F 53.6 °F 68% 30.17 in 10.0 mi Calm Calm - N/A   Clear
5:15 PM 59.0 °F 53.6 °F 82% 30.17 in 10.0 mi Calm Calm - N/A   Clear
5:35 PM 55.4 °F 51.8 °F 88% 30.18 in 10.0 mi Calm Calm - N/A   Clear
5:55 PM 53.6 °F 53.6 °F 100% 30.17 in 10.0 mi Calm Calm - N/A   Clear
6:15 PM - - N/A% 30.18 in 10.0 mi Calm Calm - N/A   Clear
6:35 PM - - N/A% 30.18 in 10.0 mi Calm Calm - N/A   Clear
6:55 PM - - N/A% 30.19 in 10.0 mi Calm Calm - N/A   Clear
7:15 PM - - N/A% 30.20 in 10.0 mi Calm Calm - N/A   Clear
7:35 PM - - N/A% 30.19 in 10.0 mi Calm Calm - N/A   Clear
7:55 PM - - N/A% 30.20 in 7.0 mi Calm Calm - N/A   Clear
8:15 PM - - N/A% 30.20 in 7.0 mi Calm Calm - N/A   Clear
8:35 PM - - N/A% 30.21 in 10.0 mi Calm Calm - N/A   Clear
8:55 PM - - N/A% 30.21 in 7.0 mi Calm Calm - N/A   Clear
9:15 PM - - N/A% 30.22 in 10.0 mi Calm Calm - N/A   Clear
9:35 PM - - N/A% 30.22 in 7.0 mi Calm Calm - N/A   Clear
9:55 PM - - N/A% 30.21 in 7.0 mi Calm Calm - N/A   Clear
10:15 PM - - N/A% 30.21 in 7.0 mi Calm Calm - N/A   Clear
10:35 PM - - N/A% 30.21 in 7.0 mi Calm Calm - N/A   Clear
10:55 PM - - N/A% 30.21 in 7.0 mi Calm Calm - N/A   Clear
11:15 PM - - N/A% 30.21 in 7.0 mi Calm Calm - N/A   Clear
11:35 PM - - N/A% 30.20 in 7.0 mi Calm Calm - N/A   Clear
11:55 PM - - N/A% 30.20 in 7.0 mi Calm Calm - N/A   Clear